Regional Weather Roundup
Issued by NWS

Home | Current Version | Previous Version | Graphics & Text | Print | Product List | Glossary On
Versions: 1 2 3 4 5 6 7 8 9 10 11 12 13 14 15 16 17 18 19 20 21 22 23 24 25 26 27 28 29 30 31 32 33 34 35 36 37 38 39 40 41 42 43 44 45 46 47 48 49 50
401
ASUS45 KBOI 231110
RWRID

IDAHO REGIONAL WEATHER ROUNDUP
NATIONAL WEATHER SERVICE BOISE ID
500 AM MDT SAT JUL 23 2016

NOTE: "FAIR" INDICATES FEW OR NO CLOUDS BELOW 12000 FEET
WITH NO SIGNIFICANT WEATHER AND/OR OBSTRUCTIONS TO VISIBILITY

IDZ012-014-231200-
SOUTHWEST IDAHO


CITY           SKY/WX    TMP DP  RH WIND       PRES   REMARKS
BOISE          CLEAR     61  41  47 W6        30.12R
CALDWELL       NOT AVBL
MOUNTAIN HOME  CLEAR     62  40  44 NW16      30.11S
$$

IDZ016-017-231200-
SOUTHCENTRAL IDAHO


CITY           SKY/WX    TMP DP  RH WIND       PRES   REMARKS
BURLEY         CLEAR     61  42  49 W13G20    30.13S
JEROME         CLEAR     59  43  55 SW7       30.15S
TWIN FALLS     CLEAR     61  37  41 SW13G23   30.16R
$$

IDZ019>023-231200-
SOUTHEAST IDAHO


CITY           SKY/WX    TMP DP  RH WIND       PRES   REMARKS
IDAHO FALLS    CLEAR     56  38  50 SW7       30.15R
POCATELLO      CLEAR     61  37  41 SW10      30.15R
REXBURG        CLEAR     52  37  56 NE3       30.15R
$$

IDZ006-010-011-018-031-032-231200-
CENTRAL IDAHO MOUNTAINS


CITY           SKY/WX    TMP DP  RH WIND       PRES   REMARKS
MCCALL         CLEAR     55  39  54 N7        30.21F
HAILEY         CLEAR     50  32  50 NW8       30.20S
STANLEY          N/A     38  29  70 SE3       30.28S
SALMON         CLEAR     57  39  51 CALM      30.17R
CHALLIS        CLEAR     54  39  57 SE3       30.18S
$$

IDZ002-004-006-007-026-231200-
NORTHERN IDAHO


CITY           SKY/WX    TMP DP  RH WIND       PRES   REMARKS
LEWISTON       CLEAR     62  47  57 SE5       30.14F
LOWELL           N/A     56  51  84 N3        30.18F
COEUR D`ALENE  CLOUDY    55  52  88 CALM      30.11F
MULLAN PASS    CLEAR     46  41  82 VRB3      30.23F
$$




USA.gov is the U.S. government's official web portal to all federal, state and local government web resources and services.